STARLINK-32393, 61862

Orbit data source: Space-Track

STARLINK-32393, 61862 is a payload satellite owned by SpaceX/Seattle (US) in LEO that was launched on Thu, 07 Nov 2024 UTC via an FALCON 9 launch vehicle from the Air Force Eastern Test Range (AFETR). Payload-class satellites include a variety of spacecraft equipped with specific instruments for various scientific and technological missions. These include communications satellites like Starlink; space stations such as the ISS; scientific satellites like the Hubble; Earth observation satellites from companies like Planet Labs, Umbra, and HawkEye 360; GPS; miniature CubeSats for education and research; and military/defense satellites.

Loading next visibility...
Identifier
61862, 2024-202T
Orbit
LEO
Country
Flag of USUS
Related business
Manufacturer
SpaceX/Seattle
Mission
Operational Commercial Communications
Bus & Motor
STARLINK V2M, Unknown motor
Mass
730 kg wet, ~700 kg dry
Launch date (UTC)
2024-11-07 (2 years ago)
Launch vehicle
FALCON 9
Launch site
Air Force Eastern Test Range (AFETR)
Object type
Payload
Rocket body
Debris
Shape & HBR
Box + 2 Pan, 17.7 m
Radar Cross Section
33.884 m², Large (>1 m²)

Expand to show TLE details & history
Last TLE update: 23 hours ago

TLE from 23 hours ago
0 STARLINK-32393
1 61862U 24202T   26266.20083686 -.00005195  00000-0 -17927-3 0  9999
2 61862  43.0014 202.6150 0000837 242.1259 117.9508 15.27601762105549
Epoch: 2026-09-23T04:49Z
TLE epoch observation values (Epoch: 2026-09-23T04:49:12.304Z)
Latitude
-0.00002°
Longitude
128.25834°
Altitude
483.029 km
Speed
7.626 km/s
True Right ascension
13h 30m 27s
True Declination
0° 00' 00"
Sunlit
Object was in daylight at epoch
Visualization orbit readout
Latitude
Unknown
Longitude
Unknown
Altitude
Unknown
Speed
Unknown
Apparent Right ascension
Unknown
Apparent Declination
Unknown
Sunlit
N/A
Visualization observer readout
Local Sidereal Time
20:47:43
Azimuth
Unknown
Elevation
Unknown
Doppler factor
Unknown
Orbital elements
Apogee altitude
485.503 km
Perigee altitude
484.354 km
Semi-major axis
6,863.066 km
Eccentricity
0.00008
Inclination
43.0014°
RAAN
202.615°
Arg. of periapsis
242.1259°
True anomaly
117.95927°
Mean anomaly
117.9508°
Eccentric anomaly
117.95504°
Mean motion
3.81738 °/min
Orbital period
94.31 mins
BSTAR
-0.00017927
Loading maneuver chart data...
Computing Atmospheric mass density...
Loading historical data...
Loading historical data...
Loading historical data...
Loading historical data...
Loading historical data...
Loading historical data...
Loading historical data...

Documentation

Showing up to 5 results
|